Flag for Azerbaijan Weather past 2 weeks in Sumqayit, Azerbaijan

Now
43 °F

Light rain. Mostly cloudy.


Feels Like: 39 °F
Forecast: 45 / 51 °F
Wind: 7 mph from East

Location: Baku / Bine Airport

Current Time: Apr 2, 2015 at 5:41:48 AM

Latest Report: Apr 2, 2015 at 5:00 AM


Visibility: 4 mi

Pressure: 29.92 "Hg

Humidity: 100%

Dew point: 43 °F

Location of SumqayitLocation

Historic Weather in Sumqayit — Graph

°F

Sumqayit temperature yesterday

Maximum temperature yesterday: 43 °F (at 4:30 PM)
Minimum temperature yesterday: 39 °F (at 12:00 AM)
Average temperature yesterday: 40 °F

Past Weeks' High & Low Weather Summary

 TemperatureHumidityPressure
High63 °F (Mar 26, 1:00 PM)100% (Mar 18, 6:30 PM)30.48 "Hg (Mar 18, 6:30 PM)
Low36 °F (Mar 20, 5:30 AM)55% (Mar 27, 3:30 PM)29.80 "Hg (Mar 21, 1:30 AM)
Average46 °F85%30.13 "Hg
* Reported Mar 18 3:00 AM — Apr 2 4:30 AM, Sumqayit, Weather by CustomWeather, © 2015

Note: Actual official high and low records may vary slightly from our data, if they occured in-between our weather recording intervals... More about our weather records

Advertising

Sumqayit weather history for previous 24 hours

 ConditionsComfort  
Time TempWeatherWind HumidityBarometerVisibility
4:30 AM
Thu, Apr 2
43 °FLight rain. Mostly cloudy.3 mph93%29.95 "Hg5 mi
4:00 AM43 °FLight rain. Mostly cloudy.6 mph93%29.95 "Hg4 mi
3:30 AM43 °FLight rain. Mostly cloudy.5 mph93%29.95 "Hg4 mi
3:00 AM43 °FLight rain. Mostly cloudy.5 mph93%29.95 "Hg4 mi
2:30 AM43 °FLight rain. Mostly cloudy.7 mph93%29.98 "Hg4 mi
2:00 AM43 °FLight rain. Mostly cloudy.6 mph93%29.98 "Hg4 mi
1:30 AM41 °FLight rain. Mostly cloudy.5 mph100%29.98 "Hg4 mi
1:00 AM41 °FLight rain. Mostly cloudy.6 mph100%29.98 "Hg4 mi
12:30 AM41 °FLight rain. Mostly cloudy.7 mph100%29.98 "Hg4 mi
12:00 AM41 °FLight rain. Mostly cloudy.8 mph100%29.98 "Hg4 mi
11:30 PM
Wed, Apr 1
41 °FLight rain. Mostly cloudy.8 mph93%29.98 "Hg4 mi
11:00 PM41 °FLight rain. Mostly cloudy.8 mph93%29.98 "Hg4 mi
10:30 PM41 °FLight rain. Mostly cloudy.8 mph93%29.98 "Hg4 mi
10:00 PM41 °FLight rain. Mostly cloudy.7 mph93%29.98 "Hg4 mi
9:30 PM41 °FLight rain. Mostly cloudy.7 mph93%29.98 "Hg4 mi
9:00 PM41 °FLight rain. Mostly cloudy.7 mph93%29.98 "Hg4 mi
8:30 PM41 °FLight rain. Mostly cloudy.8 mph93%29.98 "Hg5 mi
8:00 PM41 °FOvercast.8 mph93%29.95 "HgN/A
7:30 PM43 °FOvercast.7 mph87%29.95 "HgN/A
7:00 PM41 °FOvercast.8 mph87%29.95 "HgN/A
6:30 PM41 °FLow clouds.9 mph87%29.95 "HgN/A
6:00 PM41 °FLow clouds.9 mph87%29.95 "HgN/A
5:30 PM41 °FLow clouds.8 mph87%29.95 "HgN/A
5:00 PM41 °FLow clouds.8 mph87%29.95 "HgN/A
4:30 PM43 °FLow clouds.7 mph81%29.95 "HgN/A
4:00 PM41 °FLow clouds.8 mph87%29.95 "HgN/A
3:30 PM41 °FLow clouds.8 mph87%29.95 "HgN/A
3:00 PM41 °FLow clouds.8 mph87%29.95 "HgN/A
2:30 PM41 °FLow clouds.8 mph87%29.95 "HgN/A
2:00 PM41 °FLow clouds.7 mph87%29.98 "HgN/A
1:30 PM41 °FLow clouds.7 mph87%29.98 "HgN/A
1:00 PM39 °FDrizzle. Low clouds.6 mph93%29.98 "HgN/A
12:30 PM39 °FDrizzle. Low clouds.5 mph93%29.98 "Hg4 mi
12:00 PM39 °FDrizzle. Low clouds.6 mph93%30.01 "Hg4 mi
11:30 AM39 °FDrizzle. Overcast.5 mph93%30.01 "HgN/A
11:00 AM39 °FDrizzle. Overcast.6 mph93%30.01 "HgN/A
10:30 AM39 °FLight rain. Mostly cloudy.3 mph87%30.01 "HgN/A
10:00 AM41 °FOvercast.3 mph76%30.01 "HgN/A
9:30 AM41 °FOvercast.2 mph76%30.01 "HgN/A
9:00 AM41 °FOvercast.No wind76%30.01 "HgN/A
8:30 AM41 °FOvercast.No wind76%29.98 "HgN/A
8:00 AM39 °FOvercast.No wind81%29.98 "HgN/A
7:30 AM39 °FOvercast.3 mph81%29.98 "HgN/A
7:00 AM39 °FOvercast.No wind81%29.98 "HgN/A
6:30 AM39 °FOvercast.3 mph75%29.98 "HgN/A
6:00 AM39 °FOvercast.No wind75%29.98 "HgN/A
5:30 AM39 °FOvercast.No wind75%29.98 "HgN/A
5:00 AM39 °FOvercast.No wind81%29.98 "HgN/A
Weather by CustomWeather, © 2015

See weather overviewHow to use our weather pages